Location: Hac?musa Deresi
(39.1694°N, 32.2508°E)
Time: 09:44:54
(UTC+00:00)

Cosmos 2221 Rocket - Pass Details

Date: 22 April 2026
Orbit: 615 x 642 km, 82.5° (Epoch: 12 May)

Event Time Altitude Azimuth Distance (km) Brightness Sun altitude
Rises 18:37:57 0° 351° (N) 2,900 7.7 -21.9°
Reaches altitude 10° 18:40:11 10° 350° (N) 1,993 6.8 -22.2°
Maximum altitude 18:44:35 79° 265° (W) 638 3.6 -22.8°
Enters shadow 18:45:19 61° 194° (SSW) 711 3.6 -23.0°
